Beaver, WV

8:57 AM EDT on July 26, 2016 (GMT -0400)
Raleigh County Memorial

Weather History for KBKW - February, 2014

Change the Weather History Date:

Wednesday, February 12, 2014

  Actual Average Record
Temperature  
Mean Temperature 22 °F 34 °F  
Max Temperature 28 °F 42 °F 72 °F (1932)
Min Temperature 15 °F 25 °F -8 °F (1936)
Degree Days  
Heating Degree Days 43 31  
Month to date heating degree days 427 386  
Since 1 July heating degree days 3706 3530  
Cooling Degree Days 0 0  
Month to date cooling degree days 0 0  
Year to date cooling degree days 0 0  
Moisture  
Dew Point 12 °F    
Average Humidity 65    
Maximum Humidity 84    
Minimum Humidity 46    
Precipitation  
Precipitation 0.43 in 0.10 in 1.50 in (1923)
Month to date precipitation 1.91 1.16  
Year to date precipitation 3.85 3.97  
Snow  
Snow 9.30 in - - ()
Month to date snowfall 11.8  
Since 1 September snowfall 46.7  
Snow Depth -    
Sea Level Pressure  
Sea Level Pressure 30.14 in    
Wind  
Wind Speed 9 mph (ESE)    
Max Wind Speed 18 mph    
Max Gust Speed 28 mph    
Visibility 4 miles    
Events Fog , Snow    
T = Trace of Precipitation, MM = Missing Value Source: NWS Daily Summary

Daily Weather History Graph

Daily Weather History Graph

Search for Another Location

Airport or City:

Trip Planner

Search our weather history database for the weather conditions in past years. The results will help you decide how hot, cold, wet, or windy it might be!

Date:

Astronomy

Feb. 12, 2014 Rise Set
Actual Time 7:17 AM EST 6:00 PM EST
Civil Twilight 6:50 AM EST 6:27 PM EST
Nautical Twilight 6:19 AM EST 6:58 PM EST
Astronomical Twilight 5:49 AM EST 7:28 PM EST
Moon 4:13 PM EST (2/12) 5:32 AM EST (2/12)
Length of Visible Light 11h 36m
Length of Day
10h 42m
Waxing Gibbous, 95% of the Moon is Illuminated
Feb 12
Waxing Gibbous
Feb 14
Full
Feb 22
Last Quarter
Mar 1
New
Mar 8
First Quarter

Hourly Weather History & Observations

Time (EST) Temp. Windchill Dew Point Humidity Pressure Visibility Wind Dir Wind Speed Gust Speed Precip Events Conditions
12:51 AM 18.0 °F - 7.0 °F 62% 30.36 in 10.0 mi Calm Calm - N/A   Clear
1:51 AM 19.0 °F 13.9 °F 6.1 °F 57% 30.35 in 10.0 mi ESE 3.5 mph - N/A   Clear
2:51 AM 19.9 °F 14.9 °F 6.1 °F 55% 30.34 in 10.0 mi Variable 3.5 mph - N/A   Clear
3:51 AM 19.9 °F 7.9 °F 7.0 °F 57% 30.31 in 10.0 mi ESE 11.5 mph 17.3 mph N/A   Clear
4:51 AM 19.0 °F 9.0 °F 8.1 °F 62% 30.34 in 10.0 mi ESE 8.1 mph - N/A   Clear
5:51 AM 19.0 °F 10.0 °F 8.1 °F 62% 30.33 in 10.0 mi Variable 6.9 mph - N/A   Clear
6:51 AM 19.0 °F 7.5 °F 8.1 °F 62% 30.32 in 10.0 mi ESE 10.4 mph - N/A   Clear
7:51 AM 19.0 °F 6.1 °F 7.0 °F 59% 30.31 in 10.0 mi SE 12.7 mph 17.3 mph N/A   Clear
8:51 AM 19.9 °F 7.3 °F 8.1 °F 60% 30.31 in 10.0 mi ESE 12.7 mph 24.2 mph N/A   Clear
9:51 AM 21.0 °F 7.6 °F 8.1 °F 57% 30.33 in 10.0 mi ESE 15.0 mph 23.0 mph N/A   Clear
10:51 AM 23.0 °F 11.1 °F 9.0 °F 55% 30.32 in 10.0 mi SSE 12.7 mph 24.2 mph N/A   Partly Cloudy
11:51 AM 24.1 °F 11.5 °F 9.0 °F 53% 30.30 in 10.0 mi SE 15.0 mph 23.0 mph N/A   Scattered Clouds
12:51 PM 26.1 °F 15.0 °F 9.0 °F 49% 30.25 in 10.0 mi SSE 12.7 mph 17.3 mph N/A   Overcast
1:51 PM 27.0 °F 17.3 °F 9.0 °F 47% 30.20 in 10.0 mi SE 10.4 mph 20.7 mph N/A   Overcast
2:51 PM 25.0 °F 14.8 °F 10.0 °F 53% 30.19 in 10.0 mi ESE 10.4 mph 19.6 mph N/A   Overcast
3:51 PM 23.0 °F 11.7 °F 10.9 °F 60% 30.18 in 6.0 mi SE 11.5 mph 24.2 mph 0.00 in Snow Light Snow
3:57 PM 23.0 °F 9.2 °F 12.9 °F 65% 30.05 in 1.5 mi ESE 17.3 mph 23.0 mph 0.00 in Snow Light Snow
4:01 PM 21.9 °F 9.2 °F 14.0 °F 72% 30.05 in 0.8 mi SE 13.8 mph 23.0 mph 0.00 in Snow Light Snow
4:25 PM 21.0 °F 9.9 °F 16.0 °F 81% 30.04 in 0.5 mi ESE 10.4 mph - 0.01 in Snow Snow
4:51 PM 21.0 °F 9.3 °F 16.0 °F 81% 30.17 in 0.2 mi ESE 11.5 mph 19.6 mph 0.02 in Snow Heavy Snow
5:04 PM 21.0 °F 14.6 °F 16.0 °F 81% 30.03 in 0.5 mi Variable 4.6 mph 19.6 mph 0.01 in Snow Snow
5:22 PM 21.0 °F 12.4 °F 16.0 °F 81% 30.03 in 0.8 mi ESE 6.9 mph - 0.03 in Snow Light Snow
5:29 PM 21.0 °F 12.4 °F 15.1 °F 78% 30.02 in 1.0 mi ESE 6.9 mph - 0.03 in Snow Light Snow
5:51 PM 21.0 °F 8.6 °F 15.1 °F 78% 30.16 in 0.5 mi ESE 12.7 mph 19.6 mph 0.04 in Snow Snow
6:10 PM 19.9 °F 10.1 °F 16.0 °F 85% 30.02 in 1.0 mi ESE 8.1 mph - 0.00 in Snow Light Snow
6:51 PM 19.9 °F 8.6 °F 15.1 °F 81% 30.15 in 1.2 mi ESE 10.4 mph - 0.03 in Snow Light Snow
7:05 PM 19.9 °F 8.6 °F 15.1 °F 81% 30.01 in 1.2 mi ESE 10.4 mph - 0.00 in Snow Light Snow
7:34 PM 19.9 °F 11.1 °F 16.0 °F 85% 30.00 in 0.8 mi East 6.9 mph - 0.03 in Snow Light Snow
7:51 PM 19.9 °F 8.6 °F 15.1 °F 81% 30.13 in 0.8 mi East 10.4 mph - 0.05 in Snow Light Snow
7:59 PM 19.9 °F 10.1 °F 15.1 °F 81% 29.99 in 1.0 mi East 8.1 mph - 0.01 in Snow Light Snow
8:13 PM 19.0 °F 9.0 °F 15.1 °F 85% 29.98 in 0.8 mi East 8.1 mph - 0.02 in Snow Light Snow
8:36 PM 19.0 °F 11.1 °F 15.1 °F 85% 29.97 in 1.0 mi East 5.8 mph - 0.03 in Snow Light Snow
8:51 PM 19.9 °F 14.9 °F 15.1 °F 81% 30.10 in 1.5 mi East 3.5 mph - 0.06 in Snow Light Snow
9:03 PM 19.9 °F 13.4 °F 15.1 °F 81% 29.96 in 0.8 mi East 4.6 mph - 0.01 in Snow Light Snow
9:28 PM 19.9 °F 14.9 °F 16.0 °F 85% 29.96 in 0.8 mi East 3.5 mph - 0.04 in Snow Light Snow
9:44 PM 19.9 °F 14.9 °F 16.0 °F 85% 29.96 in 0.8 mi East 3.5 mph - 0.05 in Snow Light Snow
9:51 PM 19.9 °F 13.4 °F 16.0 °F 85% 30.08 in 0.8 mi East 4.6 mph - 0.06 in Snow Light Snow
10:32 PM 19.9 °F 12.1 °F 16.0 °F 85% 29.92 in 0.5 mi East 5.8 mph - 0.04 in Fog , Snow Snow
10:51 PM 19.9 °F 9.3 °F 16.0 °F 85% 30.04 in 0.8 mi East 9.2 mph - 0.06 in Snow Light Snow
11:07 PM 19.9 °F 11.1 °F 16.0 °F 85% 29.90 in 0.8 mi East 6.9 mph - 0.01 in Snow Light Snow
11:24 PM 19.9 °F 10.1 °F 16.0 °F 85% 29.89 in 0.5 mi East 8.1 mph - 0.03 in Fog , Snow Snow
11:51 PM 21.0 °F 13.4 °F 17.1 °F 85% 30.00 in 0.8 mi East 5.8 mph - 0.09 in Snow Light Snow